Weather History for KUNV - April, 2014

Change the Weather History Date:

Sunday, April 6, 2014

  Actual Average Record
Temperature  
Mean Temperature 42 °F -  
Max Temperature 57 °F 53 °F 83 °F (1929)
Min Temperature 28 °F 33 °F 19 °F (1943)
Degree Days  
Heating Degree Days 22    
Moisture  
Dew Point 17 °F    
Average Humidity 42    
Maximum Humidity 74    
Minimum Humidity 15    
Precipitation  
Precipitation 0.00 in - - ()
Sea Level Pressure  
Sea Level Pressure 30.16 in    
Wind  
Wind Speed 4 mph (WNW)    
Max Wind Speed 9 mph    
Max Gust Speed 16 mph    
Visibility 10 miles    
Events      
Averages and records for this station are not official NWS values.
T = Trace of Precipitation, MM = Missing Value Source: NWS Daily Summary

Daily Weather History Graph

Daily Weather History Graph

Search for Another Location

Airport or City:

Trip Planner

Search our weather history database for the weather conditions in past years. The results will help you decide how hot, cold, wet, or windy it might be!

Date:

Astronomy

Apr. 06, 2014 Rise Set
Actual Time 6:46 AM EDT 7:41 PM EDT
Civil Twilight 6:18 AM EDT 8:09 PM EDT
Nautical Twilight 5:45 AM EDT 8:42 PM EDT
Astronomical Twilight 5:11 AM EDT 9:17 PM EDT
Moon 11:44 AM EDT (4/6) 1:37 AM EDT (4/6)
Length of Visible Light 13h 50m
Length of Day
12h 54m
Waxing Crescent, 43% of the Moon is Illuminated
Apr 6
Waxing Crescent
Apr 7
First Quarter
Apr 15
Full
Apr 22
Last Quarter
Apr 29
New

Hourly Weather History & Observations

Time (EDT) Temp. Windchill Dew Point Humidity Pressure Visibility Wind Dir Wind Speed Gust Speed Precip Events Conditions
12:15 AM 35.6 °F 31.7 °F 19.6 °F 52% 30.17 in 10.0 mi WNW 4.6 mph - N/A   Clear
12:35 AM 35.4 °F 29.7 °F 19.8 °F 53% 30.17 in 10.0 mi NW 6.9 mph - N/A   Clear
12:55 AM 34.7 °F 29.6 °F 19.8 °F 54% 30.17 in 10.0 mi WNW 5.8 mph - N/A   Clear
1:15 AM 34.7 °F 28.1 °F 20.1 °F 55% 30.16 in 10.0 mi WNW 8.1 mph - N/A   Clear
1:35 AM 34.9 °F 27.7 °F 20.1 °F 55% 30.16 in 10.0 mi NW 9.2 mph 16.1 mph N/A   Clear
1:55 AM 34.5 °F 28.6 °F 20.1 °F 56% 30.16 in 10.0 mi WNW 6.9 mph - N/A   Clear
2:15 AM 35.1 °F 29.3 °F 19.8 °F 54% 30.16 in 10.0 mi NW 6.9 mph - N/A   Clear
2:35 AM 34.9 °F 29.0 °F 19.9 °F 55% 30.16 in 10.0 mi NW 6.9 mph - N/A   Clear
2:55 AM 34.7 °F 30.6 °F 19.8 °F 54% 30.16 in 10.0 mi WNW 4.6 mph - N/A   Clear
3:15 AM 34.3 °F 27.7 °F 20.1 °F 56% 30.16 in 10.0 mi WNW 8.1 mph - N/A   Clear
3:35 AM 34.2 °F 27.5 °F 20.3 °F 57% 30.17 in 10.0 mi NW 8.1 mph - N/A   Clear
3:55 AM 34.0 °F 28.0 °F 20.3 °F 57% 30.17 in 10.0 mi NW 6.9 mph - N/A   Clear
4:15 AM 33.1 °F 27.7 °F 20.3 °F 59% 30.17 in 10.0 mi NW 5.8 mph - N/A   Clear
4:35 AM 32.9 °F 29.8 °F 20.3 °F 60% 30.17 in 10.0 mi NW 3.5 mph - N/A   Clear
4:55 AM 32.5 °F - 20.3 °F 61% 30.18 in 10.0 mi Calm Calm - N/A   Clear
5:15 AM 30.6 °F - 20.8 °F 67% 30.18 in 10.0 mi Calm Calm - N/A   Clear
5:35 AM 31.5 °F - 20.8 °F 65% 30.18 in 10.0 mi Calm Calm - N/A   Clear
5:53 AM 30.2 °F 23.4 °F 21.2 °F 69% 30.18 in 10.0 mi NW 6.9 mph - N/A   Clear
6:53 AM 28.4 °F - 21.2 °F 74% 30.21 in 10.0 mi Calm Calm - N/A   Clear
7:53 AM 32.0 °F - 23.0 °F 69% 30.22 in 10.0 mi Calm Calm - N/A   Clear
8:53 AM 35.6 °F - 23.0 °F 60% 30.23 in 10.0 mi Calm Calm - N/A   Clear
9:53 AM 39.2 °F - 23.0 °F 52% 30.22 in 10.0 mi Calm Calm - N/A   Clear
10:50 AM 42.8 °F - 23.0 °F 46% 30.21 in 10.0 mi Calm Calm - N/A   Clear
11:50 AM 46.4 °F - 19.4 °F 34% 30.20 in 10.0 mi Calm Calm - N/A   Clear
12:50 PM 48.2 °F - 19.4 °F 32% 30.20 in 10.0 mi Calm Calm - N/A   Clear
1:50 PM 50.0 °F - 14.0 °F 24% 30.19 in 10.0 mi Calm Calm - N/A   Clear
2:53 PM 53.6 °F - 10.4 °F 18% 30.16 in 10.0 mi South 4.6 mph - N/A   Clear
3:53 PM 55.4 °F - 10.4 °F 17% 30.13 in 10.0 mi South 4.6 mph - N/A   Clear
4:53 PM 57.2 °F - 12.2 °F 17% 30.11 in 10.0 mi Calm Calm - N/A   Clear
5:53 PM 57.2 °F - 10.4 °F 16% 30.08 in 10.0 mi South 3.5 mph - N/A   Clear
6:53 PM 55.4 °F - 8.6 °F 15% 30.12 in 10.0 mi SSE 5.8 mph - N/A   Clear
7:53 PM 51.8 °F - 8.6 °F 18% 30.14 in 10.0 mi Calm Calm - N/A   Clear
8:53 PM 50.0 °F - 8.6 °F 19% 30.13 in 10.0 mi Calm Calm - N/A   Clear
9:15 PM 50.0 °F - 9.1 °F 19% 30.13 in 10.0 mi Calm Calm - N/A   Clear
9:35 PM 49.3 °F - 10.6 °F 21% 30.14 in 10.0 mi Calm Calm - N/A   Clear
9:55 PM 49.1 °F - 11.3 °F 22% 30.13 in 10.0 mi Calm Calm - N/A   Clear
10:15 PM 48.0 °F - 11.7 °F 23% 30.14 in 10.0 mi Calm Calm - N/A   Clear
10:35 PM 49.1 °F - 12.6 °F 23% 30.13 in 10.0 mi Calm Calm - N/A   Clear
10:55 PM 48.0 °F - 13.1 °F 25% 30.14 in 10.0 mi Calm Calm - N/A   Clear
11:15 PM 47.5 °F - 14.7 °F 27% 30.14 in 10.0 mi Calm Calm - N/A   Clear
11:35 PM 46.9 °F - 15.8 °F 29% 30.14 in 10.0 mi Calm Calm - N/A   Clear
11:55 PM 46.4 °F - 15.8 °F 29% 30.13 in 10.0 mi Calm Calm - N/A   Clear